Tracking 30009 objects as of 8-Dec-2024
HD Live streaming from Space Station
objects crossing your sky now

OBJECT X

Track OBJECT X now!
10-day predictions


NORAD ID: 57025
Int'l Code: 2023-085X
Perigee: 469.1 km
Apogee: 479.6 km
Inclination: 97.5 °
Period: 93.9 minutes
Semi major axis: 6845 km
RCS: Unknown
Launch date: June 15, 2023
Source: People's Republic of China (PRC)
Launch site: Taiyaun Space Center, China (TSC)
Your satellite tracking list
Your tracking list is empty




NASA's NSSDC Master Catalog

Two Line Element Set (TLE):
1 57025U 23085X   24342.89896233  .00049242  00000-0  15436-2 0  9992
2 57025  97.4694  86.3954 0007688 206.6059 153.4789 15.32878903 82106
Source of the keplerian elements: AFSPC